When you browse on this site, cookies collect data to enhance your experience and personalize the content and advertising you see.
Visit our Privacy Policy to learn more. By continuing to use the site, you agree to this use of cookies and data.
  • In Hungary
  • List of Countries
  • For 7 days
  • Water Temperature
  • Weather Map
  • News
  • Weather Widgets
  • user-avatar
    Login

    Hourly Weather Grand Sess

    Today, 10 December, Tuesday

    Time Temperature Precipitation Wind Pressure Humidity
    00:00 +27°C° 0.3 mm 2 mps 756 mmHg 91%
    01:00 +26°C° 0.3 mm 2 mps 756 mmHg 92%
    02:00 +26°C° 0.3 mm 1 mps 755 mmHg 92%
    03:00 +26°C° 0.4 mm 1 mps 755 mmHg 92%
    04:00 +26°C° 0.4 mm 1 mps 755 mmHg 92%
    05:00 +26°C° 0 mm 1 mps 756 mmHg 91%
    06:00 +27°C° 0.3 mm 2 mps 756 mmHg 86%
    07:00 +29°C° 0.3 mm 2 mps 757 mmHg 80%
    08:00 +30°C° 0.3 mm 2 mps 757 mmHg 75%
    09:00 +31°C° 0 mm 2 mps 757 mmHg 68%
    10:00 +34°C° 0 mm 2 mps 756 mmHg 61%
    11:00 +35°C° 0 mm 2 mps 756 mmHg 54%
    12:00 +34°C° 0.9 mm 2 mps 756 mmHg 59%
    13:00 +32°C° 0.9 mm 2 mps 755 mmHg 64%
    14:00 +32°C° 0.9 mm 2 mps 755 mmHg 69%
    15:00 +31°C° 0.8 mm 2 mps 755 mmHg 74%
    16:00 +30°C° 0.8 mm 2 mps 755 mmHg 78%
    17:00 +29°C° 0.8 mm 2 mps 755 mmHg 83%
    18:00 +28°C° 0 mm 2 mps 756 mmHg 84%
    19:00 +28°C° 0 mm 2 mps 756 mmHg 85%
    20:00 +27°C° 0 mm 2 mps 757 mmHg 87%
    21:00 +27°C° 0 mm 2 mps 757 mmHg 87%
    22:00 +27°C° 0 mm 2 mps 756 mmHg 88%
    23:00 +27°C° 0 mm 2 mps 756 mmHg 89%

    Tomorrow, 11 December, Wednesday

    Time Temperature Precipitation Wind Pressure Humidity
    00:00 +27°C° 0.5 mm 2 mps 756 mmHg 90%
    01:00 +26°C° 0.5 mm 2 mps 756 mmHg 91%
    02:00 +26°C° 0.5 mm 2 mps 755 mmHg 92%
    03:00 +26°C° 0.5 mm 2 mps 755 mmHg 92%
    04:00 +26°C° 0.5 mm 2 mps 755 mmHg 92%
    05:00 +26°C° 0.5 mm 1 mps 756 mmHg 92%
    06:00 +27°C° 0 mm 1 mps 756 mmHg 86%
    07:00 +29°C° 0 mm 1 mps 757 mmHg 81%
    08:00 +30°C° 0 mm 1 mps 757 mmHg 75%
    09:00 +31°C° 0 mm 1 mps 757 mmHg 71%
    10:00 +32°C° 0 mm 1 mps 756 mmHg 67%
    11:00 +33°C° 0 mm 1 mps 756 mmHg 63%
    12:00 +32°C° 0.2 mm 2 mps 755 mmHg 64%
    13:00 +32°C° 0.2 mm 2 mps 755 mmHg 66%
    14:00 +31°C° 0.2 mm 2 mps 754 mmHg 67%
    15:00 +31°C° 0.3 mm 2 mps 754 mmHg 71%
    16:00 +30°C° 0.3 mm 2 mps 754 mmHg 75%
    17:00 +29°C° 0.3 mm 2 mps 755 mmHg 79%
    18:00 +28°C° 0 mm 2 mps 755 mmHg 81%
    19:00 +28°C° 0 mm 2 mps 756 mmHg 84%
    20:00 +27°C° 0 mm 2 mps 756 mmHg 86%
    21:00 +27°C° 0.1 mm 2 mps 756 mmHg 87%
    22:00 +27°C° 0.1 mm 2 mps 756 mmHg 88%
    23:00 +27°C° 0.1 mm 2 mps 756 mmHg 88%

    Day after tomorrow, 12 December, Thursday

    Time Temperature Precipitation Wind Pressure Humidity
    00:00 +26°C° 0.1 mm 2 mps 756 mmHg 89%
    01:00 +26°C° 0.1 mm 2 mps 756 mmHg 90%
    02:00 +26°C° 0.1 mm 1 mps 755 mmHg 90%
    03:00 +26°C° 0.7 mm 2 mps 755 mmHg 91%
    04:00 +26°C° 0.7 mm 2 mps 755 mmHg 92%
    05:00 +25°C° 0.7 mm 2 mps 755 mmHg 93%
    06:00 +27°C° 0.4 mm 2 mps 756 mmHg 88%
    07:00 +28°C° 0.4 mm 2 mps 756 mmHg 83%
    08:00 +30°C° 0.4 mm 1 mps 757 mmHg 79%
    09:00 +30°C° 0.2 mm 2 mps 757 mmHg 74%
    10:00 +31°C° 0.2 mm 2 mps 756 mmHg 70%
    11:00 +32°C° 0.2 mm 2 mps 756 mmHg 66%
    12:00 +32°C° 0.7 mm 2 mps 756 mmHg 67%
    13:00 +32°C° 0.7 mm 2 mps 755 mmHg 67%
    14:00 +32°C° 0.7 mm 2 mps 755 mmHg 68%
    15:00 +31°C° 0.2 mm 2 mps 755 mmHg 72%
    16:00 +30°C° 0.2 mm 2 mps 755 mmHg 76%
    17:00 +29°C° 0.2 mm 1 mps 755 mmHg 80%
    18:00 +28°C° 0.1 mm 1 mps 756 mmHg 82%
    19:00 +27°C° 0.1 mm 1 mps 756 mmHg 84%
    20:00 +27°C° 0.1 mm 1 mps 757 mmHg 87%
    21:00 +27°C° 0 mm 1 mps 756 mmHg 87%
    22:00 +26°C° 0 mm 2 mps 756 mmHg 88%
    23:00 +26°C° 0 mm 2 mps 756 mmHg 89%

    13 December, Friday

    Time Temperature Precipitation Wind Pressure Humidity
    00:00 +26°C° 0 mm 2 mps 756 mmHg 90%
    01:00 +26°C° 0 mm 2 mps 756 mmHg 91%
    02:00 +26°C° 0 mm 2 mps 755 mmHg 92%
    03:00 +25°C° 0 mm 2 mps 755 mmHg 92%
    04:00 +25°C° 0 mm 2 mps 756 mmHg 92%
    05:00 +25°C° 0 mm 2 mps 756 mmHg 93%
    06:00 +27°C° 0 mm 2 mps 756 mmHg 87%
    07:00 +28°C° 0 mm 2 mps 757 mmHg 81%
    08:00 +30°C° 0 mm 2 mps 757 mmHg 75%
    09:00 +30°C° 0 mm 2 mps 757 mmHg 72%
    10:00 +31°C° 0 mm 2 mps 757 mmHg 69%
    11:00 +32°C° 0 mm 2 mps 757 mmHg 65%
    12:00 +31°C° 0.3 mm 3 mps 756 mmHg 66%
    13:00 +31°C° 0.3 mm 3 mps 755 mmHg 68%
    14:00 +31°C° 0.3 mm 3 mps 755 mmHg 69%
    15:00 +30°C° 0.2 mm 3 mps 755 mmHg 73%
    16:00 +30°C° 0.2 mm 3 mps 755 mmHg 77%
    17:00 +29°C° 0.2 mm 3 mps 755 mmHg 81%
    18:00 +28°C° 0.1 mm 3 mps 756 mmHg 84%
    19:00 +28°C° 0.1 mm 2 mps 756 mmHg 86%
    20:00 +27°C° 0.1 mm 2 mps 757 mmHg 89%
    21:00 +27°C° 0 mm 2 mps 757 mmHg 90%
    22:00 +27°C° 0 mm 2 mps 756 mmHg 90%
    23:00 +26°C° 0 mm 3 mps 756 mmHg 91%

    14 December, Saturday

    Time Temperature Precipitation Wind Pressure Humidity
    00:00 +26°C° 0 mm 3 mps 756 mmHg 92%
    01:00 +26°C° 0 mm 3 mps 756 mmHg 93%
    02:00 +26°C° 0 mm 3 mps 755 mmHg 94%
    03:00 +26°C° 0.3 mm 3 mps 755 mmHg 94%
    04:00 +25°C° 0.3 mm 3 mps 755 mmHg 94%
    05:00 +25°C° 0.3 mm 2 mps 756 mmHg 94%
    06:00 +27°C° 0.3 mm 2 mps 756 mmHg 88%
    07:00 +28°C° 0.3 mm 3 mps 756 mmHg 83%
    08:00 +30°C° 0.3 mm 3 mps 757 mmHg 77%
    09:00 +30°C° 0.4 mm 3 mps 757 mmHg 75%
    10:00 +31°C° 0.4 mm 3 mps 756 mmHg 73%
    11:00 +32°C° 0.4 mm 4 mps 756 mmHg 70%
    12:00 +32°C° 1.1 mm 4 mps 756 mmHg 72%
    13:00 +32°C° 1.1 mm 4 mps 755 mmHg 73%
    14:00 +30°C° 1.1 mm 4 mps 755 mmHg 75%
    15:00 +30°C° 0.8 mm 4 mps 755 mmHg 78%
    16:00 +29°C° 0.8 mm 3 mps 755 mmHg 82%
    17:00 +28°C° 0.8 mm 3 mps 755 mmHg 85%
    18:00 +28°C° 0.6 mm 3 mps 756 mmHg 87%
    19:00 +27°C° 0.6 mm 3 mps 756 mmHg 90%
    20:00 +26°C° 0.6 mm 3 mps 757 mmHg 92%
    21:00 +26°C° 0.5 mm 3 mps 757 mmHg 92%
    22:00 +26°C° 0.5 mm 3 mps 756 mmHg 93%
    23:00 +26°C° 0.5 mm 3 mps 756 mmHg 94%

    15 December, Sunday

    Time Temperature Precipitation Wind Pressure Humidity
    00:00 +26°C° 0.3 mm 3 mps 756 mmHg 94%
    01:00 +26°C° 0.3 mm 3 mps 755 mmHg 94%
    02:00 +26°C° 0.3 mm 3 mps 755 mmHg 94%
    03:00 +26°C° 0.1 mm 3 mps 755 mmHg 95%
    04:00 +26°C° 0.1 mm 3 mps 755 mmHg 95%
    05:00 +25°C° 0.1 mm 3 mps 755 mmHg 95%
    06:00 +27°C° 0.5 mm 3 mps 756 mmHg 91%
    07:00 +28°C° 0.5 mm 3 mps 756 mmHg 86%
    08:00 +29°C° 0.5 mm 2 mps 757 mmHg 81%
    09:00 +30°C° 0.3 mm 3 mps 757 mmHg 77%
    10:00 +31°C° 0.3 mm 3 mps 756 mmHg 73%
    11:00 +33°C° 0.3 mm 3 mps 756 mmHg 69%
    12:00 +33°C° 0.7 mm 3 mps 756 mmHg 70%
    13:00 +31°C° 0.7 mm 3 mps 755 mmHg 70%
    14:00 +31°C° 0.7 mm 2 mps 754 mmHg 70%
    15:00 +30°C° 0.6 mm 2 mps 755 mmHg 75%
    16:00 +29°C° 0.6 mm 2 mps 755 mmHg 80%
    17:00 +28°C° 0.6 mm 2 mps 755 mmHg 84%
    18:00 +28°C° 0.1 mm 2 mps 755 mmHg 86%
    19:00 +27°C° 0.1 mm 2 mps 756 mmHg 87%
    20:00 +27°C° 0.1 mm 2 mps 756 mmHg 88%
    21:00 +27°C° 0 mm 3 mps 756 mmHg 89%
    22:00 +27°C° 0 mm 3 mps 756 mmHg 90%
    23:00 +26°C° 0 mm 3 mps 756 mmHg 90%
    Show more